Time,TemperatureF,DewpointF,PressureIn,WindDirection,WindDirectionDegrees,WindSpeedMPH,WindSpeedGustMPH,Humidity,HourlyPrecipIn,Conditions,Clouds,dailyrainin,SoftwareType,DateUTC
2013-01-08 00:00:00,74.3,69.8,30.15,NE,45,3.8,3.8,86,0.00,CLR,,0.41,WeatherDisplay:10.37,2013-01-08 05:00:00,
2013-01-08 00:01:00,74.3,69.8,30.15,NNE,22,6.0,6.0,86,0.00,CLR,,0.00,WeatherDisplay:10.37,2013-01-08 05:01:00,
2013-01-08 00:02:00,74.5,70.0,30.15,NNE,22,6.0,6.0,86,0.00,CLR,,0.00,WeatherDisplay:10.37,2013-01-08 05:02:00,
2013-01-08 00:04:00,74.3,69.8,30.15,East,90,6.9,6.9,86,0.00,CLR,,0.00,WeatherDisplay:10.37,2013-01-08 05:04:00,
2013-01-08 00:10:00,74.5,70.0,30.15,ENE,68,4.6,4.6,86,0.00,CLR,,0.00,WeatherDisplay:10.37,2013-01-08 05:10:00,
2013-01-08 00:15:00,74.5,70.4,30.15,ESE,112,6.2,6.2,87,0.00,CLR,,0.00,WeatherDisplay:10.37,2013-01-08 05:15:00,
2013-01-08 00:20:00,74.3,69.8,30.15,East,90,5.8,5.8,86,0.00,CLR,,0.00,WeatherDisplay:10.37,2013-01-08 05:20:00,
2013-01-08 00:25:00,74.3,69.8,30.15,NE,45,5.8,5.8,86,0.00,CLR,,0.00,WeatherDisplay:10.37,2013-01-08 05:25:00,
2013-01-08 00:30:00,74.3,69.8,30.15,NNE,22,5.8,5.8,86,0.00,CLR,,0.00,WeatherDisplay:10.37,2013-01-08 05:30:00,
2013-01-08 00:35:00,74.5,70.0,30.15,SSE,158,5.8,5.8,86,0.00,CLR,,0.00,WeatherDisplay:10.37,2013-01-08 05:35:00,
2013-01-08 00:41:00,74.3,69.8,30.15,East,90,8.1,8.1,86,0.00,CLR,,0.00,WeatherDisplay:10.37,2013-01-08 05:41:00,
2013-01-08 00:46:00,74.3,69.8,30.15,East,90,5.8,5.8,86,0.00,CLR,,0.00,WeatherDisplay:10.37,2013-01-08 05:46:00,
2013-01-08 00:51:00,74.5,70.0,30.15,NE,45,8.1,8.1,86,0.00,CLR,,0.00,WeatherDisplay:10.37,2013-01-08 05:51:00,
2013-01-08 00:56:00,74.5,70.0,30.15,East,90,8.1,8.1,86,0.00,CLR,,0.00,WeatherDisplay:10.37,2013-01-08 05:56:00,
2013-01-08 01:01:00,74.5,70.0,30.12,ENE,68,6.0,6.0,86,0.00,CLR,,0.00,WeatherDisplay:10.37,2013-01-08 06:01:00,
2013-01-08 01:06:00,74.5,70.0,30.12,East,90,8.1,8.1,86,0.00,CLR,,0.00,WeatherDisplay:10.37,2013-01-08 06:06:00,
2013-01-08 01:12:00,74.5,70.4,30.12,SW,225,9.2,9.2,87,0.00,CLR,,0.00,WeatherDisplay:10.37,2013-01-08 06:12:00,
2013-01-08 01:17:00,74.5,70.0,30.12,SE,135,5.9,5.9,86,0.00,CLR,,0.00,WeatherDisplay:10.37,2013-01-08 06:17:00,
2013-01-08 01:22:00,74.5,70.0,30.12,East,90,8.1,8.1,86,0.00,CLR,,0.00,WeatherDisplay:10.37,2013-01-08 06:22:00,
2013-01-08 01:27:00,74.5,70.0,30.12,NE,45,5.8,5.8,86,0.00,CLR,,0.00,WeatherDisplay:10.37,2013-01-08 06:27:00,
2013-01-08 01:32:00,74.5,70.0,30.12,North,0,8.1,8.1,86,0.00,CLR,,0.00,WeatherDisplay:10.37,2013-01-08 06:32:00,
2013-01-08 01:38:00,74.5,70.0,30.12,SE,135,10.4,10.4,86,0.00,CLR,,0.00,WeatherDisplay:10.37,2013-01-08 06:38:00,
2013-01-08 01:43:00,74.5,70.0,30.12,NE,45,8.1,8.1,86,0.00,CLR,,0.00,WeatherDisplay:10.37,2013-01-08 06:43:00,
2013-01-08 01:48:00,74.3,69.8,30.12,ENE,68,9.2,9.2,86,0.00,CLR,,0.00,WeatherDisplay:10.37,2013-01-08 06:48:00,
2013-01-08 01:54:00,74.3,69.8,30.12,East,90,8.1,8.1,86,0.00,CLR,,0.00,WeatherDisplay:10.37,2013-01-08 06:54:00,
2013-01-08 01:59:00,74.3,69.8,30.12,ESE,112,9.2,9.2,86,0.00,CLR,,0.00,WeatherDisplay:10.37,2013-01-08 06:59:00,
2013-01-08 02:04:00,74.3,70.2,30.15,ESE,112,8.1,8.1,87,0.00,CLR,,0.00,WeatherDisplay:10.37,2013-01-08 07:04:00,
2013-01-08 02:09:00,74.1,70.0,30.15,ESE,112,6.9,6.9,87,0.00,CLR,,0.00,WeatherDisplay:10.37,2013-01-08 07:09:00,
2013-01-08 02:14:00,74.1,70.0,30.15,East,90,6.9,6.9,87,0.00,CLR,,0.00,WeatherDisplay:10.37,2013-01-08 07:14:00,
2013-01-08 02:20:00,74.1,70.3,30.12,NNE,22,6.4,6.4,88,0.00,CLR,,0.00,WeatherDisplay:10.37,2013-01-08 07:20:00,
2013-01-08 02:25:00,73.9,70.2,30.12,NE,45,6.9,6.9,88,0.00,CLR,,0.00,WeatherDisplay:10.37,2013-01-08 07:25:00,
2013-01-08 02:30:00,73.9,69.8,30.12,NW,315,8.1,8.1,87,0.00,CLR,,0.00,WeatherDisplay:10.37,2013-01-08 07:30:00,
2013-01-08 02:35:00,74.1,70.3,30.12,SE,135,4.6,4.6,88,0.00,CLR,,0.00,WeatherDisplay:10.37,2013-01-08 07:35:00,
2013-01-08 02:40:00,73.9,70.2,30.12,ENE,68,4.6,4.6,88,0.00,CLR,,0.00,WeatherDisplay:10.37,2013-01-08 07:40:00,
2013-01-08 02:45:00,73.9,70.2,30.12,SE,135,4.6,4.6,88,0.00,CLR,,0.00,WeatherDisplay:10.37,2013-01-08 07:45:00,
2013-01-08 02:50:00,74.1,70.3,30.09,NNE,22,7.4,7.4,88,0.00,CLR,,0.00,WeatherDisplay:10.37,2013-01-08 07:50:00,
2013-01-08 02:55:00,74.1,70.3,30.09,East,90,6.0,6.0,88,0.00,CLR,,0.00,WeatherDisplay:10.37,2013-01-08 07:55:00,
2013-01-08 03:00:00,74.1,70.3,30.09,East,90,5.8,5.8,88,0.00,CLR,,0.00,WeatherDisplay:10.37,2013-01-08 08:00:00,
2013-01-08 03:05:00,74.3,70.5,30.09,East,89,3.0,6.0,88,0.00,,,0.00,WeatherDisplay:10.37,2013-01-08 08:05:00,
2013-01-08 03:10:00,74.3,70.5,30.09,ESE,120,3.0,5.0,88,0.00,,,0.00,WeatherDisplay:10.37,2013-01-08 08:10:00,
2013-01-08 03:15:00,74.3,70.5,30.09,SE,135,8.1,8.1,88,0.00,CLR,,0.00,WeatherDisplay:10.37,2013-01-08 08:15:00,
2013-01-08 03:20:00,74.5,70.7,30.09,East,101,5.0,9.0,88,0.00,,,0.00,WeatherDisplay:10.37,2013-01-08 08:20:00,
2013-01-08 03:25:00,74.3,70.5,30.09,East,90,6.9,6.9,88,0.00,CLR,,0.00,WeatherDisplay:10.37,2013-01-08 08:25:00,
2013-01-08 03:30:00,74.5,70.7,30.09,NNE,22,10.4,10.4,88,0.00,CLR,,0.00,WeatherDisplay:10.37,2013-01-08 08:30:00,
2013-01-08 03:35:00,74.5,71.0,30.09,ESE,112,5.8,5.8,89,0.00,CLR,,0.00,WeatherDisplay:10.37,2013-01-08 08:35:00,
2013-01-08 03:40:00,74.5,70.7,30.09,NE,45,7.6,7.6,88,0.00,CLR,,0.00,WeatherDisplay:10.37,2013-01-08 08:40:00,
2013-01-08 03:45:00,74.5,70.7,30.09,NE,45,5.9,5.9,88,0.00,CLR,,0.00,WeatherDisplay:10.37,2013-01-08 08:45:00,
2013-01-08 03:51:00,74.3,70.5,30.09,SSE,158,5.8,5.8,88,0.00,CLR,,0.00,WeatherDisplay:10.37,2013-01-08 08:51:00,
2013-01-08 03:56:00,74.5,70.7,30.09,SE,135,4.6,4.6,88,0.00,CLR,,0.00,WeatherDisplay:10.37,2013-01-08 08:56:00,
2013-01-08 04:01:00,74.5,70.7,30.12,ENE,68,7.6,7.6,88,0.00,CLR,,0.00,WeatherDisplay:10.37,2013-01-08 09:01:00,
2013-01-08 04:06:00,74.5,70.7,30.12,NE,45,7.1,7.1,88,0.00,CLR,,0.00,WeatherDisplay:10.37,2013-01-08 09:06:00,
2013-01-08 04:11:00,74.5,70.7,30.12,ESE,112,8.1,8.1,88,0.00,CLR,,0.00,WeatherDisplay:10.37,2013-01-08 09:11:00,
2013-01-08 04:16:00,74.5,70.7,30.09,WSW,248,4.6,0.0,88,0.00,CLR,,0.00,WeatherDisplay:10.37,2013-01-08 09:16:00,
2013-01-08 04:21:00,74.5,70.7,30.09,SE,135,4.9,4.9,88,0.00,CLR,,0.00,WeatherDisplay:10.37,2013-01-08 09:21:00,
2013-01-08 04:26:00,74.5,70.7,30.09,SE,135,10.4,10.4,88,0.00,CLR,,0.00,WeatherDisplay:10.37,2013-01-08 09:26:00,
2013-01-08 04:31:00,74.3,70.2,30.09,SSE,158,5.8,6.0,87,0.00,CLR,,0.00,WeatherDisplay:10.37,2013-01-08 09:31:00,
2013-01-08 04:37:00,74.5,70.4,30.09,South,180,9.2,9.2,87,0.00,CLR,,0.00,WeatherDisplay:10.37,2013-01-08 09:37:00,
2013-01-08 04:42:00,74.3,70.2,30.09,SE,135,9.2,9.2,87,0.00,CLR,,0.00,WeatherDisplay:10.37,2013-01-08 09:42:00,
2013-01-08 04:47:00,74.1,70.0,30.09,ESE,112,6.9,6.9,87,0.00,CLR,,0.00,WeatherDisplay:10.37,2013-01-08 09:47:00,
2013-01-08 04:52:00,74.1,70.0,30.09,East,90,8.1,8.1,87,0.00,CLR,,0.00,WeatherDisplay:10.37,2013-01-08 09:52:00,
2013-01-08 04:57:00,73.9,69.8,30.09,ESE,112,8.1,8.1,87,0.00,CLR,,0.00,WeatherDisplay:10.37,2013-01-08 09:57:00,
2013-01-08 05:02:00,73.8,69.6,30.12,NE,45,6.9,6.9,87,0.00,CLR,,0.00,WeatherDisplay:10.37,2013-01-08 10:02:00,
2013-01-08 05:07:00,73.8,69.6,30.12,ENE,68,5.8,5.8,87,0.00,CLR,,0.00,WeatherDisplay:10.37,2013-01-08 10:07:00,
2013-01-08 05:12:00,73.8,69.6,30.12,North,0,3.8,3.8,87,0.00,CLR,,0.00,WeatherDisplay:10.37,2013-01-08 10:12:00,
2013-01-08 05:18:00,73.9,70.2,30.09,NE,45,3.5,0.0,88,0.00,CLR,,0.00,WeatherDisplay:10.37,2013-01-08 10:18:00,
2013-01-08 05:23:00,73.9,70.2,30.09,SSE,158,9.2,9.2,88,0.00,CLR,,0.00,WeatherDisplay:10.37,2013-01-08 10:23:00,
2013-01-08 05:28:00,74.1,70.3,30.09,East,90,8.1,8.1,88,0.00,CLR,,0.00,WeatherDisplay:10.37,2013-01-08 10:28:00,
2013-01-08 05:33:00,74.3,70.5,30.12,SSE,158,9.2,9.2,88,0.00,CLR,,0.00,WeatherDisplay:10.37,2013-01-08 10:33:00,
2013-01-08 05:38:00,74.3,70.2,30.12,SE,135,10.0,10.0,87,0.00,CLR,,0.00,WeatherDisplay:10.37,2013-01-08 10:38:00,
2013-01-08 05:44:00,74.3,70.2,30.12,ESE,112,8.1,8.1,87,0.00,CLR,,0.00,WeatherDisplay:10.37,2013-01-08 10:44:00,
2013-01-08 05:49:00,74.5,70.4,30.12,SE,135,6.9,6.9,87,0.00,CLR,,0.00,WeatherDisplay:10.37,2013-01-08 10:49:00,
2013-01-08 05:54:00,74.5,70.4,30.12,SSE,158,11.5,11.5,87,0.00,CLR,,0.00,WeatherDisplay:10.37,2013-01-08 10:54:00,
2013-01-08 05:59:00,74.5,70.4,30.12,ESE,112,10.4,10.4,87,0.00,CLR,,0.00,WeatherDisplay:10.37,2013-01-08 10:59:00,
2013-01-08 06:04:00,74.7,70.5,30.15,NNE,22,8.1,8.1,87,0.00,CLR,,0.00,WeatherDisplay:10.37,2013-01-08 11:04:00,
2013-01-08 06:09:00,74.7,70.5,30.15,ESE,112,8.1,8.1,87,0.00,CLR,,0.00,WeatherDisplay:10.37,2013-01-08 11:09:00,
2013-01-08 06:14:00,74.7,70.5,30.15,SE,135,6.4,6.4,87,0.00,CLR,,0.00,WeatherDisplay:10.37,2013-01-08 11:14:00,
2013-01-08 06:19:00,74.5,70.0,30.15,SE,135,8.1,8.1,86,0.00,CLR,,0.00,WeatherDisplay:10.37,2013-01-08 11:19:00,
2013-01-08 06:24:00,74.7,70.2,30.15,South,180,9.2,9.2,86,0.00,CLR,,0.00,WeatherDisplay:10.37,2013-01-08 11:24:00,
2013-01-08 06:30:00,74.7,70.2,30.15,South,180,6.0,6.0,86,0.00,CLR,,0.00,WeatherDisplay:10.37,2013-01-08 11:30:00,
2013-01-08 06:35:00,74.7,70.2,30.15,SE,128,3.0,9.0,86,0.00,,,0.00,WeatherDisplay:10.37,2013-01-08 11:35:00,
2013-01-08 06:40:00,74.7,70.2,30.15,SE,134,5.0,9.0,86,0.00,,,0.00,WeatherDisplay:10.37,2013-01-08 11:40:00,
2013-01-08 06:45:00,74.7,70.2,30.15,ESE,112,8.1,8.1,86,0.00,CLR,,0.00,WeatherDisplay:10.37,2013-01-08 11:45:00,
2013-01-08 06:50:00,74.7,70.2,30.15,ESE,112,7.8,7.8,86,0.00,CLR,,0.00,WeatherDisplay:10.37,2013-01-08 11:50:00,
2013-01-08 06:55:00,74.7,70.2,30.15,SSE,158,5.9,5.9,86,0.00,CLR,,0.00,WeatherDisplay:10.37,2013-01-08 11:55:00,
2013-01-08 07:00:00,74.7,70.2,30.15,SSE,152,3.0,6.0,86,0.00,,,0.00,WeatherDisplay:10.37,2013-01-08 12:00:00,
2013-01-08 07:06:00,74.7,70.2,30.15,ENE,68,5.8,5.8,86,0.00,CLR,,0.00,WeatherDisplay:10.37,2013-01-08 12:06:00,
2013-01-08 07:11:00,74.7,70.2,30.15,ESE,112,6.9,6.9,86,0.00,CLR,,0.00,WeatherDisplay:10.37,2013-01-08 12:11:00,
2013-01-08 07:16:00,74.7,70.2,30.15,South,180,6.9,6.9,86,0.00,CLR,,0.00,WeatherDisplay:10.37,2013-01-08 12:16:00,
2013-01-08 07:21:00,74.7,70.2,30.15,SSW,202,6.9,6.9,86,0.00,CLR,,0.00,WeatherDisplay:10.37,2013-01-08 12:21:00,
2013-01-08 07:26:00,74.8,70.4,30.15,ESE,112,5.8,5.8,86,0.00,CLR,,0.00,WeatherDisplay:10.37,2013-01-08 12:26:00,
2013-01-08 07:32:00,74.7,70.2,30.15,SE,135,6.9,6.9,86,0.00,CLR,,0.00,WeatherDisplay:10.37,2013-01-08 12:32:00,
2013-01-08 07:37:00,74.8,70.4,30.15,North,0,4.6,4.6,86,0.00,CLR,,0.00,WeatherDisplay:10.37,2013-01-08 12:37:00,
2013-01-08 07:42:00,75.0,70.9,30.15,East,90,6.2,6.2,87,0.00,CLR,,0.00,WeatherDisplay:10.37,2013-01-08 12:42:00,
2013-01-08 07:47:00,75.0,70.9,30.15,ENE,68,5.8,5.8,87,0.00,CLR,,0.00,WeatherDisplay:10.37,2013-01-08 12:47:00,
2013-01-08 07:53:00,75.0,70.9,30.15,East,90,4.6,4.6,87,0.00,CLR,,0.00,WeatherDisplay:10.37,2013-01-08 12:53:00,
2013-01-08 07:58:00,75.2,71.1,30.15,SW,225,3.5,3.5,87,0.00,CLR,,0.00,WeatherDisplay:10.37,2013-01-08 12:58:00,
2013-01-08 08:03:00,75.0,70.9,30.18,SSW,202,6.9,6.9,87,0.00,CLR,,0.00,WeatherDisplay:10.37,2013-01-08 13:03:00,
2013-01-08 08:08:00,75.0,70.9,30.18,East,90,5.4,5.4,87,0.00,CLR,,0.00,WeatherDisplay:10.37,2013-01-08 13:08:00,
2013-01-08 08:14:00,75.0,70.9,30.18,ESE,112,2.2,0.0,87,0.00,CLR,,0.00,WeatherDisplay:10.37,2013-01-08 13:14:00,
2013-01-08 08:19:00,75.2,71.1,30.18,East,90,2.3,2.3,87,0.00,CLR,,0.00,WeatherDisplay:10.37,2013-01-08 13:19:00,
2013-01-08 08:24:00,75.2,71.1,30.18,SE,135,5.8,5.8,87,0.00,CLR,,0.00,WeatherDisplay:10.37,2013-01-08 13:24:00,
2013-01-08 08:29:00,75.4,71.2,30.18,ENE,68,6.0,6.0,87,0.00,CLR,,0.00,WeatherDisplay:10.37,2013-01-08 13:29:00,
2013-01-08 08:34:00,75.7,71.6,30.21,SW,225,9.2,9.2,87,0.00,CLR,,0.00,WeatherDisplay:10.37,2013-01-08 13:34:00,
2013-01-08 08:40:00,75.9,71.8,30.21,SSE,158,8.1,8.1,87,0.00,CLR,,0.00,WeatherDisplay:10.37,2013-01-08 13:40:00,
2013-01-08 08:45:00,76.5,72.3,30.21,SE,135,11.5,11.5,87,0.00,CLR,,0.00,WeatherDisplay:10.37,2013-01-08 13:45:00,
2013-01-08 08:50:00,76.8,72.3,30.21,SSE,158,8.1,8.1,86,0.00,CLR,,0.00,WeatherDisplay:10.37,2013-01-08 13:50:00,
2013-01-08 08:55:00,76.5,71.6,30.21,SE,135,9.2,9.2,85,0.00,CLR,,0.00,WeatherDisplay:10.37,2013-01-08 13:55:00,
2013-01-08 09:00:00,76.6,71.8,30.21,SE,135,4.6,4.6,85,0.00,CLR,,0.00,WeatherDisplay:10.37,2013-01-08 14:00:00,
2013-01-08 09:05:00,76.5,71.6,30.21,SSE,158,5.9,5.9,85,0.00,CLR,,0.00,WeatherDisplay:10.37,2013-01-08 14:05:00,
2013-01-08 09:10:00,76.5,71.6,30.21,SE,135,4.6,4.6,85,0.00,CLR,,0.00,WeatherDisplay:10.37,2013-01-08 14:10:00,
2013-01-08 09:15:00,76.3,71.4,30.21,East,90,6.9,6.9,85,0.00,CLR,,0.00,WeatherDisplay:10.37,2013-01-08 14:15:00,
2013-01-08 09:20:00,76.3,71.4,30.21,South,180,10.2,10.2,85,0.00,CLR,,0.00,WeatherDisplay:10.37,2013-01-08 14:20:00,
2013-01-08 09:26:00,76.3,71.4,30.21,NNE,22,5.8,5.8,85,0.00,CLR,,0.00,WeatherDisplay:10.37,2013-01-08 14:26:00,
2013-01-08 09:31:00,76.4,71.6,30.21,SSE,148,2.0,10.0,85,0.00,,,0.00,WeatherDisplay:10.37,2013-01-08 14:31:00,
2013-01-08 09:36:00,76.5,71.6,30.21,SE,135,7.8,7.8,85,0.00,CLR,,0.00,WeatherDisplay:10.37,2013-01-08 14:36:00,
2013-01-08 09:41:00,76.5,71.6,30.21,SE,135,9.2,9.2,85,0.00,CLR,,0.00,WeatherDisplay:10.37,2013-01-08 14:41:00,
2013-01-08 09:46:00,76.8,72.0,30.24,East,90,5.9,5.9,85,0.00,CLR,,0.00,WeatherDisplay:10.37,2013-01-08 14:46:00,
2013-01-08 09:51:00,77.0,72.1,30.24,ESE,112,9.2,9.2,85,0.00,CLR,,0.00,WeatherDisplay:10.37,2013-01-08 14:51:00,
2013-01-08 09:56:00,77.2,72.3,30.24,SSE,158,5.8,5.8,85,0.00,CLR,,0.00,WeatherDisplay:10.37,2013-01-08 14:56:00,
2013-01-08 10:01:00,77.4,72.1,30.24,WSW,248,9.7,9.7,84,0.00,CLR,,0.00,WeatherDisplay:10.37,2013-01-08 15:01:00,
2013-01-08 10:07:00,77.5,72.3,30.24,ESE,112,3.5,3.5,84,0.00,CLR,,0.00,WeatherDisplay:10.37,2013-01-08 15:07:00,
2013-01-08 10:12:00,77.7,72.5,30.24,SSE,158,9.2,9.2,84,0.00,CLR,,0.00,WeatherDisplay:10.37,2013-01-08 15:12:00,
2013-01-08 10:17:00,77.9,72.7,30.24,ESE,112,7.4,7.4,84,0.00,CLR,,0.00,WeatherDisplay:10.37,2013-01-08 15:17:00,
2013-01-08 10:22:00,77.9,72.3,30.24,East,90,5.8,5.8,83,0.00,CLR,,0.00,WeatherDisplay:10.37,2013-01-08 15:22:00,
2013-01-08 10:27:00,77.9,72.3,30.24,ESE,112,6.2,6.2,83,0.00,CLR,,0.00,WeatherDisplay:10.37,2013-01-08 15:27:00,
2013-01-08 10:32:00,78.1,72.5,30.24,East,90,5.8,5.8,83,0.00,CLR,,0.00,WeatherDisplay:10.37,2013-01-08 15:32:00,
2013-01-08 10:37:00,78.1,72.5,30.24,South,180,7.6,7.6,83,0.00,CLR,,0.00,WeatherDisplay:10.37,2013-01-08 15:37:00,
2013-01-08 10:42:00,78.3,72.7,30.24,East,90,7.6,7.6,83,0.00,CLR,,0.00,WeatherDisplay:10.37,2013-01-08 15:42:00,
2013-01-08 10:48:00,78.4,72.8,30.21,ESE,112,5.8,5.8,83,0.00,CLR,,0.00,WeatherDisplay:10.37,2013-01-08 15:48:00,
2013-01-08 10:53:00,78.8,72.8,30.21,ENE,68,3.6,4.9,82,0.00,CLR,,0.00,WeatherDisplay:10.37,2013-01-08 15:53:00,
2013-01-08 10:58:00,79.0,73.0,30.21,ENE,68,3.6,4.9,82,0.00,CLR,,0.00,WeatherDisplay:10.37,2013-01-08 15:58:00,
2013-01-08 11:03:00,79.0,72.6,30.21,ENE,68,3.6,4.9,81,0.00,CLR,,0.00,WeatherDisplay:10.37,2013-01-08 16:03:00,
2013-01-08 11:08:00,79.0,72.6,30.21,SSE,158,6.9,6.9,81,0.00,CLR,,0.00,WeatherDisplay:10.37,2013-01-08 16:08:00,
2013-01-08 11:13:00,79.0,72.6,30.21,South,180,8.1,8.1,81,0.00,CLR,,0.00,WeatherDisplay:10.37,2013-01-08 16:13:00,
2013-01-08 11:18:00,79.2,72.8,30.21,SSW,202,9.2,9.2,81,0.00,CLR,,0.00,WeatherDisplay:10.37,2013-01-08 16:18:00,
2013-01-08 11:24:00,79.0,72.6,30.21,ESE,112,6.9,6.9,81,0.00,CLR,,0.00,WeatherDisplay:10.37,2013-01-08 16:24:00,
2013-01-08 11:29:00,79.0,72.6,30.21,SE,135,5.8,6.2,81,0.00,CLR,,0.00,WeatherDisplay:10.37,2013-01-08 16:29:00,
2013-01-08 11:34:00,79.3,72.6,30.21,East,90,8.1,8.1,80,0.00,CLR,,0.00,WeatherDisplay:10.37,2013-01-08 16:34:00,
2013-01-08 11:39:00,79.5,72.8,30.21,South,180,6.9,6.9,80,0.00,CLR,,0.00,WeatherDisplay:10.37,2013-01-08 16:39:00,
2013-01-08 11:44:00,79.7,73.0,30.21,SE,135,5.8,5.8,80,0.00,CLR,,0.00,WeatherDisplay:10.37,2013-01-08 16:44:00,
2013-01-08 11:49:00,79.7,73.0,30.21,SSE,158,4.6,4.6,80,0.00,CLR,,0.00,WeatherDisplay:10.37,2013-01-08 16:49:00,
2013-01-08 11:54:00,79.9,73.2,30.21,SE,135,8.1,8.1,80,0.00,CLR,,0.00,WeatherDisplay:10.37,2013-01-08 16:54:00,
2013-01-08 12:00:00,79.9,73.2,30.21,South,180,4.9,4.9,80,0.00,CLR,,0.00,WeatherDisplay:10.37,2013-01-08 17:00:00,
2013-01-08 12:05:00,80.1,73.0,30.21,SE,141,6.0,7.0,79,0.00,CLR,,0.00,WeatherDisplay:10.37,2013-01-08 17:05:00,
2013-01-08 12:10:00,80.1,73.0,30.21,SE,135,5.8,5.8,79,0.00,CLR,,0.00,WeatherDisplay:10.37,2013-01-08 17:10:00,
2013-01-08 12:15:00,80.2,73.1,30.21,NNE,22,9.7,9.7,79,0.00,CLR,,0.00,WeatherDisplay:10.37,2013-01-08 17:15:00,
2013-01-08 12:20:00,80.2,73.1,30.21,SE,143,5.0,9.0,79,0.00,CLR,,0.00,WeatherDisplay:10.37,2013-01-08 17:20:00,
2013-01-08 12:25:00,80.4,73.3,30.21,SSE,158,8.1,8.1,79,0.00,CLR,,0.00,WeatherDisplay:10.37,2013-01-08 17:25:00,
2013-01-08 12:30:00,80.2,72.8,30.21,ESE,112,8.1,8.1,78,0.00,CLR,,0.00,WeatherDisplay:10.37,2013-01-08 17:30:00,
2013-01-08 12:36:00,80.2,72.8,30.18,SE,135,5.8,5.8,78,0.00,CLR,,0.00,WeatherDisplay:10.37,2013-01-08 17:36:00,
2013-01-08 12:41:00,80.2,72.8,30.18,NE,45,9.2,9.2,78,0.00,CLR,,0.00,WeatherDisplay:10.37,2013-01-08 17:41:00,
2013-01-08 12:46:00,80.2,72.8,30.18,SW,225,9.8,9.8,78,0.00,CLR,,0.00,WeatherDisplay:10.37,2013-01-08 17:46:00,
2013-01-08 12:51:00,80.2,72.8,30.18,ESE,112,8.1,8.1,78,0.00,CLR,,0.00,WeatherDisplay:10.37,2013-01-08 17:51:00,
2013-01-08 12:56:00,80.2,72.8,30.18,SW,225,4.0,4.0,78,0.00,CLR,,0.00,WeatherDisplay:10.37,2013-01-08 17:56:00,
2013-01-08 13:01:00,80.4,72.9,30.21,WSW,248,8.1,8.1,78,0.00,CLR,,0.00,WeatherDisplay:10.37,2013-01-08 18:01:00,
2013-01-08 13:06:00,80.4,72.9,30.21,SSW,202,6.9,6.9,78,0.00,CLR,,0.00,WeatherDisplay:10.37,2013-01-08 18:06:00,
2013-01-08 13:11:00,80.4,72.9,30.21,South,180,5.8,5.8,78,0.00,CLR,,0.00,WeatherDisplay:10.37,2013-01-08 18:11:00,
2013-01-08 13:16:00,80.4,72.9,30.18,SE,135,8.1,8.1,78,0.00,CLR,,0.00,WeatherDisplay:10.37,2013-01-08 18:16:00,
2013-01-08 13:22:00,80.2,72.8,30.18,NNE,22,5.8,5.8,78,0.00,CLR,,0.00,WeatherDisplay:10.37,2013-01-08 18:22:00,
2013-01-08 13:27:00,80.4,73.3,30.18,East,90,6.9,6.9,79,0.00,CLR,,0.00,WeatherDisplay:10.37,2013-01-08 18:27:00,
2013-01-08 13:32:00,80.4,72.9,30.18,NE,45,6.9,6.9,78,0.00,CLR,,0.00,WeatherDisplay:10.37,2013-01-08 18:32:00,
2013-01-08 13:37:00,80.4,72.9,30.18,South,180,8.1,8.1,78,0.00,CLR,,0.00,WeatherDisplay:10.37,2013-01-08 18:37:00,
2013-01-08 13:42:00,80.4,72.9,30.18,SE,135,6.9,6.9,78,0.00,CLR,,0.00,WeatherDisplay:10.37,2013-01-08 18:42:00,
2013-01-08 13:47:00,80.4,72.9,30.18,East,90,12.7,12.7,78,0.00,CLR,,0.00,WeatherDisplay:10.37,2013-01-08 18:47:00,
2013-01-08 13:52:00,80.8,72.9,30.18,South,180,8.1,8.1,77,0.00,CLR,,0.00,WeatherDisplay:10.37,2013-01-08 18:52:00,
2013-01-08 13:57:00,81.0,73.1,30.18,East,90,8.1,8.1,77,0.00,CLR,,0.00,WeatherDisplay:10.37,2013-01-08 18:57:00,
2013-01-08 14:03:00,81.0,73.1,30.15,ENE,68,6.0,6.0,77,0.00,CLR,,0.00,WeatherDisplay:10.37,2013-01-08 19:03:00,
2013-01-08 14:08:00,81.1,73.2,30.15,South,180,6.2,6.2,77,0.00,CLR,,0.00,WeatherDisplay:10.37,2013-01-08 19:08:00,
2013-01-08 14:13:00,80.6,72.3,30.15,WSW,248,7.4,7.4,76,0.00,CLR,,0.00,WeatherDisplay:10.37,2013-01-08 19:13:00,
2013-01-08 14:18:00,80.6,72.3,30.18,SSE,158,6.9,6.9,76,0.00,CLR,,0.00,WeatherDisplay:10.37,2013-01-08 19:18:00,
2013-01-08 14:23:00,80.8,72.5,30.18,ESE,112,8.1,8.1,76,0.00,CLR,,0.00,WeatherDisplay:10.37,2013-01-08 19:23:00,
2013-01-08 14:28:00,80.6,72.3,30.18,ENE,68,8.5,8.5,76,0.00,CLR,,0.00,WeatherDisplay:10.37,2013-01-08 19:28:00,
2013-01-08 14:33:00,80.6,72.3,30.15,South,180,9.4,9.4,76,0.00,CLR,,0.00,WeatherDisplay:10.37,2013-01-08 19:33:00,
2013-01-08 14:39:00,80.8,72.5,30.15,South,180,8.1,8.1,76,0.00,CLR,,0.00,WeatherDisplay:10.37,2013-01-08 19:39:00,
2013-01-08 14:44:00,80.8,72.5,30.15,SE,135,8.1,8.1,76,0.00,CLR,,0.00,WeatherDisplay:10.37,2013-01-08 19:44:00,
2013-01-08 14:49:00,81.0,72.3,30.15,SE,135,8.1,8.1,75,0.00,CLR,,0.00,WeatherDisplay:10.37,2013-01-08 19:49:00,
2013-01-08 14:54:00,81.1,72.5,30.15,East,90,7.1,7.1,75,0.00,CLR,,0.00,WeatherDisplay:10.37,2013-01-08 19:54:00,
2013-01-08 14:59:00,81.3,72.6,30.15,South,180,8.5,8.5,75,0.00,CLR,,0.00,WeatherDisplay:10.37,2013-01-08 19:59:00,
2013-01-08 15:04:00,81.0,72.3,30.15,South,180,9.2,9.2,75,0.00,CLR,,0.00,WeatherDisplay:10.37,2013-01-08 20:04:00,
2013-01-08 15:09:00,80.8,72.1,30.15,ENE,68,10.0,10.0,75,0.00,CLR,,0.00,WeatherDisplay:10.37,2013-01-08 20:09:00,
2013-01-08 15:14:00,80.6,71.9,30.15,SE,135,6.9,6.9,75,0.00,CLR,,0.00,WeatherDisplay:10.37,2013-01-08 20:14:00,
2013-01-08 15:19:00,81.0,72.7,30.18,SE,135,6.9,6.9,76,0.00,CLR,,0.00,WeatherDisplay:10.37,2013-01-08 20:19:00,
2013-01-08 15:24:00,81.1,72.5,30.18,SSW,202,9.2,9.2,75,0.00,CLR,,0.00,WeatherDisplay:10.37,2013-01-08 20:24:00,
2013-01-08 15:30:00,81.3,72.6,30.18,East,90,5.8,5.8,75,0.00,CLR,,0.00,WeatherDisplay:10.37,2013-01-08 20:30:00,
2013-01-08 15:35:00,81.3,72.6,30.15,SE,135,9.8,9.8,75,0.00,CLR,,0.00,WeatherDisplay:10.37,2013-01-08 20:35:00,
2013-01-08 15:40:00,81.3,72.6,30.15,South,180,9.2,9.2,75,0.00,CLR,,0.00,WeatherDisplay:10.37,2013-01-08 20:40:00,
2013-01-08 15:45:00,81.0,72.3,30.15,WSW,248,9.2,9.2,75,0.00,CLR,,0.00,WeatherDisplay:10.37,2013-01-08 20:45:00,
2013-01-08 15:50:00,81.0,72.3,30.15,SSE,157,5.0,12.0,75,0.00,CLR,,0.00,WeatherDisplay:10.37,2013-01-08 20:50:00,
2013-01-08 15:55:00,80.8,72.1,30.15,ENE,68,6.9,6.9,75,0.00,CLR,,0.00,WeatherDisplay:10.37,2013-01-08 20:55:00,
2013-01-08 16:00:00,80.9,72.3,30.15,SE,136,2.0,9.0,75,0.00,CLR,,0.00,WeatherDisplay:10.37,2013-01-08 21:00:00,
2013-01-08 16:05:00,81.0,72.3,30.18,ESE,112,4.6,4.6,75,0.00,CLR,,0.00,WeatherDisplay:10.37,2013-01-08 21:05:00,
2013-01-08 16:11:00,81.0,72.3,30.18,East,90,5.8,5.8,75,0.00,CLR,,0.00,WeatherDisplay:10.37,2013-01-08 21:11:00,
2013-01-08 16:16:00,81.0,71.9,30.18,ESE,112,8.1,8.1,74,0.00,CLR,,0.00,WeatherDisplay:10.37,2013-01-08 21:16:00,
2013-01-08 16:21:00,80.6,71.5,30.18,South,180,5.8,5.8,74,0.00,CLR,,0.00,WeatherDisplay:10.37,2013-01-08 21:21:00,
2013-01-08 16:26:00,80.6,71.9,30.18,East,90,5.8,5.8,75,0.00,CLR,,0.00,WeatherDisplay:10.37,2013-01-08 21:26:00,
2013-01-08 16:31:00,80.4,71.8,30.18,ESE,112,8.1,8.1,75,0.00,CLR,,0.00,WeatherDisplay:10.37,2013-01-08 21:31:00,
2013-01-08 16:36:00,80.4,71.8,30.18,ESE,112,5.9,5.9,75,0.00,CLR,,0.00,WeatherDisplay:10.37,2013-01-08 21:36:00,
2013-01-08 16:41:00,80.2,71.6,30.18,SE,135,6.9,6.9,75,0.00,CLR,,0.00,WeatherDisplay:10.37,2013-01-08 21:41:00,
2013-01-08 16:46:00,80.2,71.6,30.18,ESE,112,8.1,8.1,75,0.00,CLR,,0.00,WeatherDisplay:10.37,2013-01-08 21:46:00,
2013-01-08 16:51:00,80.4,72.2,30.18,East,90,6.4,6.4,76,0.00,CLR,,0.00,WeatherDisplay:10.37,2013-01-08 21:51:00,
2013-01-08 16:57:00,79.9,71.2,30.18,East,90,9.2,9.2,75,0.00,CLR,,0.00,WeatherDisplay:10.37,2013-01-08 21:57:00,
2013-01-08 17:02:00,79.9,71.6,30.18,SSE,158,8.1,8.1,76,0.00,CLR,,0.00,WeatherDisplay:10.37,2013-01-08 22:02:00,
2013-01-08 17:07:00,79.7,71.5,30.18,SE,135,9.2,9.2,76,0.00,CLR,,0.00,WeatherDisplay:10.37,2013-01-08 22:07:00,
2013-01-08 17:12:00,79.7,71.5,30.18,East,90,5.9,5.9,76,0.00,CLR,,0.00,WeatherDisplay:10.37,2013-01-08 22:12:00,
2013-01-08 17:17:00,79.7,71.5,30.18,South,180,5.8,5.8,76,0.00,CLR,,0.00,WeatherDisplay:10.37,2013-01-08 22:17:00,
2013-01-08 17:22:00,79.5,71.3,30.18,SE,135,8.1,8.1,76,0.00,CLR,,0.00,WeatherDisplay:10.37,2013-01-08 22:22:00,
2013-01-08 17:27:00,79.3,71.1,30.18,ESE,112,11.5,11.5,76,0.00,CLR,,0.00,WeatherDisplay:10.37,2013-01-08 22:27:00,
2013-01-08 17:32:00,79.2,71.3,30.18,South,180,9.2,9.2,77,0.00,CLR,,0.00,WeatherDisplay:10.37,2013-01-08 22:32:00,
2013-01-08 17:38:00,79.2,71.3,30.18,ESE,112,8.1,8.1,77,0.00,CLR,,0.00,WeatherDisplay:10.37,2013-01-08 22:38:00,
2013-01-08 17:43:00,79.0,71.2,30.18,ESE,112,4.6,4.6,77,0.00,CLR,,0.00,WeatherDisplay:10.37,2013-01-08 22:43:00,
2013-01-08 17:48:00,78.8,71.0,30.18,East,90,5.9,5.9,77,0.00,CLR,,0.00,WeatherDisplay:10.37,2013-01-08 22:48:00,
2013-01-08 17:53:00,78.4,71.0,30.18,South,180,6.0,6.0,78,0.00,CLR,,0.00,WeatherDisplay:10.37,2013-01-08 22:53:00,
2013-01-08 17:58:00,78.4,71.0,30.18,East,90,7.1,7.1,78,0.00,CLR,,0.00,WeatherDisplay:10.37,2013-01-08 22:58:00,
2013-01-08 18:04:00,78.3,70.8,30.21,ESE,112,5.8,5.8,78,0.00,CLR,,0.00,WeatherDisplay:10.37,2013-01-08 23:04:00,
2013-01-08 18:09:00,78.3,70.8,30.21,SW,225,4.6,4.6,78,0.00,CLR,,0.00,WeatherDisplay:10.37,2013-01-08 23:09:00,
2013-01-08 18:14:00,78.6,71.6,30.21,South,180,3.5,0.0,79,0.00,CLR,,0.00,WeatherDisplay:10.37,2013-01-08 23:14:00,
2013-01-08 18:19:00,78.6,71.6,30.21,WNW,292,0.0,1.2,79,0.00,CLR,,0.00,WeatherDisplay:10.37,2013-01-08 23:19:00,
2013-01-08 18:24:00,78.4,71.4,30.18,SSW,202,6.9,6.9,79,0.00,CLR,,0.00,WeatherDisplay:10.37,2013-01-08 23:24:00,
2013-01-08 18:30:00,78.3,71.2,30.18,ESE,112,6.4,6.4,79,0.00,CLR,,0.00,WeatherDisplay:10.37,2013-01-08 23:30:00,
2013-01-08 18:35:00,78.1,71.0,30.18,SSW,202,5.8,5.8,79,0.00,CLR,,0.00,WeatherDisplay:10.37,2013-01-08 23:35:00,
2013-01-08 18:40:00,78.1,71.0,30.18,ENE,68,5.8,5.8,79,0.00,CLR,,0.00,WeatherDisplay:10.37,2013-01-08 23:40:00,
2013-01-08 18:45:00,78.1,71.0,30.18,WSW,248,3.5,3.5,79,0.00,CLR,,0.00,WeatherDisplay:10.37,2013-01-08 23:45:00,
2013-01-08 18:50:00,78.1,71.0,30.18,ENE,68,3.5,3.5,79,0.00,CLR,,0.00,WeatherDisplay:10.37,2013-01-08 23:50:00,
2013-01-08 18:55:00,77.9,70.9,30.18,SE,134,3.0,6.0,79,0.00,CLR,,0.00,WeatherDisplay:10.37,2013-01-08 23:55:00,
2013-01-08 19:00:00,77.9,70.9,30.18,East,90,4.6,4.6,79,0.00,CLR,,0.00,WeatherDisplay:10.37,2013-01-09 00:00:00,
2013-01-08 19:05:00,77.7,71.1,30.18,SSE,158,6.4,6.4,80,0.00,CLR,,0.00,WeatherDisplay:10.37,2013-01-09 00:05:00,
2013-01-08 19:10:00,77.7,71.1,30.18,NNE,22,8.1,8.1,80,0.00,CLR,,0.00,WeatherDisplay:10.37,2013-01-09 00:10:00,
2013-01-08 19:15:00,77.7,71.1,30.18,SE,126,3.0,8.0,80,0.00,CLR,,0.00,WeatherDisplay:10.37,2013-01-09 00:15:00,
2013-01-08 19:21:00,77.7,71.1,30.18,WNW,292,4.6,4.6,80,0.00,CLR,,0.00,WeatherDisplay:10.37,2013-01-09 00:21:00,
2013-01-08 19:26:00,77.7,71.1,30.18,NNE,22,6.9,6.9,80,0.00,CLR,,0.00,WeatherDisplay:10.37,2013-01-09 00:26:00,
2013-01-08 19:31:00,77.7,71.1,30.18,ESE,119,2.0,7.0,80,0.00,CLR,,0.00,WeatherDisplay:10.37,2013-01-09 00:31:00,
2013-01-08 19:36:00,77.7,71.1,30.18,South,180,4.6,4.6,80,0.00,CLR,,0.00,WeatherDisplay:10.37,2013-01-09 00:36:00,
2013-01-08 19:41:00,77.7,71.1,30.18,East,90,5.8,5.8,80,0.00,CLR,,0.00,WeatherDisplay:10.37,2013-01-09 00:41:00,
2013-01-08 19:46:00,77.5,70.9,30.18,ESE,112,5.8,5.8,80,0.00,CLR,,0.00,WeatherDisplay:10.37,2013-01-09 00:46:00,
2013-01-08 19:51:00,77.5,70.9,30.18,SE,135,7.8,7.8,80,0.00,CLR,,0.00,WeatherDisplay:10.37,2013-01-09 00:51:00,
2013-01-08 19:57:00,77.5,70.9,30.18,ENE,68,5.8,5.8,80,0.00,CLR,,0.00,WeatherDisplay:10.37,2013-01-09 00:57:00,
2013-01-08 20:02:00,77.7,71.4,30.21,NW,315,5.4,5.4,81,0.00,CLR,,0.00,WeatherDisplay:10.37,2013-01-09 01:02:00,
2013-01-08 20:07:00,77.9,71.2,30.21,East,90,10.4,10.4,80,0.00,CLR,,0.00,WeatherDisplay:10.37,2013-01-09 01:07:00,
2013-01-08 20:12:00,77.9,71.2,30.21,SSW,202,10.4,10.4,80,0.00,CLR,,0.00,WeatherDisplay:10.37,2013-01-09 01:12:00,
2013-01-08 20:17:00,77.9,71.2,30.21,ESE,112,8.1,8.1,80,0.00,CLR,,0.00,WeatherDisplay:10.37,2013-01-09 01:17:00,
2013-01-08 20:22:00,77.7,71.1,30.21,SW,225,10.5,10.5,80,0.00,CLR,,0.00,WeatherDisplay:10.37,2013-01-09 01:22:00,
2013-01-08 20:27:00,77.7,71.1,30.21,ESE,112,9.8,9.8,80,0.00,CLR,,0.00,WeatherDisplay:10.37,2013-01-09 01:27:00,
2013-01-08 20:33:00,77.9,71.2,30.21,South,180,5.8,5.8,80,0.00,CLR,,0.00,WeatherDisplay:10.37,2013-01-09 01:33:00,
2013-01-08 20:38:00,77.9,71.2,30.21,SSE,158,9.2,9.2,80,0.00,CLR,,0.00,WeatherDisplay:10.37,2013-01-09 01:38:00,
2013-01-08 20:43:00,77.7,71.1,30.21,East,90,6.9,6.9,80,0.00,CLR,,0.00,WeatherDisplay:10.37,2013-01-09 01:43:00,
2013-01-08 20:48:00,77.5,70.9,30.21,SSW,202,8.1,8.1,80,0.00,CLR,,0.00,WeatherDisplay:10.37,2013-01-09 01:48:00,
2013-01-08 20:53:00,77.5,70.9,30.21,SSE,158,7.6,7.6,80,0.00,CLR,,0.00,WeatherDisplay:10.37,2013-01-09 01:53:00,
2013-01-08 20:58:00,77.5,70.9,30.21,ENE,68,8.1,8.1,80,0.00,CLR,,0.00,WeatherDisplay:10.37,2013-01-09 01:58:00,
2013-01-08 21:03:00,77.4,70.7,30.21,NE,45,5.8,5.8,80,0.00,CLR,,0.00,WeatherDisplay:10.37,2013-01-09 02:03:00,
2013-01-08 21:08:00,77.4,71.1,30.21,SE,135,11.5,11.5,81,0.00,CLR,,0.00,WeatherDisplay:10.37,2013-01-09 02:08:00,
2013-01-08 21:14:00,77.4,71.1,30.21,East,90,6.9,6.9,81,0.00,CLR,,0.00,WeatherDisplay:10.37,2013-01-09 02:14:00,
2013-01-08 21:19:00,77.4,71.1,30.21,SE,135,11.5,11.5,81,0.00,CLR,,0.00,WeatherDisplay:10.37,2013-01-09 02:19:00,
2013-01-08 21:24:00,77.4,71.1,30.21,East,90,11.5,11.5,81,0.00,CLR,,0.00,WeatherDisplay:10.37,2013-01-09 02:24:00,
2013-01-08 21:29:00,77.4,71.4,30.21,SSE,158,8.5,8.5,82,0.00,CLR,,0.00,WeatherDisplay:10.37,2013-01-09 02:29:00,
2013-01-08 21:34:00,77.4,71.4,30.21,West,270,12.7,12.7,82,0.00,CLR,,0.00,WeatherDisplay:10.37,2013-01-09 02:34:00,
2013-01-08 21:39:00,77.4,71.1,30.21,SE,135,13.8,13.8,81,0.00,CLR,,0.00,WeatherDisplay:10.37,2013-01-09 02:39:00,
2013-01-08 21:44:00,77.4,71.4,30.21,ESE,112,10.4,10.4,82,0.00,CLR,,0.00,WeatherDisplay:10.37,2013-01-09 02:44:00,
2013-01-08 21:49:00,77.4,71.4,30.21,ESE,112,13.0,13.0,82,0.00,CLR,,0.00,WeatherDisplay:10.37,2013-01-09 02:49:00,
2013-01-08 21:55:00,77.4,71.4,30.21,SE,135,11.5,11.5,82,0.00,CLR,,0.00,WeatherDisplay:10.37,2013-01-09 02:55:00,
2013-01-08 22:00:00,77.4,71.4,30.21,East,90,13.8,13.8,82,0.00,CLR,,0.00,WeatherDisplay:10.37,2013-01-09 03:00:00,
2013-01-08 22:05:00,77.4,71.4,30.21,SE,128,5.0,9.0,82,0.00,CLR,,0.00,WeatherDisplay:10.37,2013-01-09 03:05:00,
2013-01-08 22:10:00,77.2,71.6,30.21,ESE,113,3.0,9.0,83,0.00,CLR,,0.00,WeatherDisplay:10.37,2013-01-09 03:10:00,
2013-01-08 22:15:00,77.2,71.6,30.21,SE,135,5.8,5.8,83,0.00,CLR,,0.00,WeatherDisplay:10.37,2013-01-09 03:15:00,
2013-01-08 22:20:00,77.2,71.6,30.21,SE,135,6.9,6.9,83,0.00,CLR,,0.00,WeatherDisplay:10.37,2013-01-09 03:20:00,
2013-01-08 22:26:00,77.2,71.6,30.21,East,90,10.4,10.4,83,0.00,CLR,,0.00,WeatherDisplay:10.37,2013-01-09 03:26:00,
2013-01-08 22:31:00,77.2,71.6,30.21,East,90,6.9,6.9,83,0.00,CLR,,0.00,WeatherDisplay:10.37,2013-01-09 03:31:00,
2013-01-08 22:36:00,77.2,71.6,30.21,NNE,22,7.4,7.4,83,0.00,CLR,,0.00,WeatherDisplay:10.37,2013-01-09 03:36:00,
2013-01-08 22:41:00,77.2,71.6,30.21,East,90,17.3,17.3,83,0.00,CLR,,0.00,WeatherDisplay:10.37,2013-01-09 03:41:00,
2013-01-08 22:46:00,76.6,71.1,30.21,SE,135,15.0,15.0,83,0.00,CLR,,0.00,WeatherDisplay:10.37,2013-01-09 03:46:00,
2013-01-08 22:51:00,76.5,70.9,30.21,NE,45,12.7,12.7,83,0.01,RA,,0.01,WeatherDisplay:10.37,2013-01-09 03:51:00,
2013-01-08 22:57:00,76.3,70.7,30.21,SSW,202,9.2,9.2,83,0.03,RA,,0.03,WeatherDisplay:10.37,2013-01-09 03:57:00,
2013-01-08 23:02:00,76.5,71.3,30.21,NW,315,10.4,10.4,84,0.03,RA,,0.03,WeatherDisplay:10.37,2013-01-09 04:02:00,
2013-01-08 23:07:00,76.3,71.1,30.21,South,180,6.9,6.9,84,0.03,CLR,,0.03,WeatherDisplay:10.37,2013-01-09 04:07:00,
2013-01-08 23:12:00,76.3,71.1,30.21,East,90,9.2,9.2,84,0.03,CLR,,0.03,WeatherDisplay:10.37,2013-01-09 04:12:00,
2013-01-08 23:18:00,76.3,71.4,30.21,South,180,5.9,5.9,85,0.03,CLR,,0.03,WeatherDisplay:10.37,2013-01-09 04:18:00,
2013-01-08 23:23:00,76.3,71.8,30.21,East,90,9.7,9.7,86,0.03,CLR,,0.03,WeatherDisplay:10.37,2013-01-09 04:23:00,
2013-01-08 23:28:00,76.3,71.8,30.21,SE,135,10.9,10.9,86,0.03,CLR,,0.03,WeatherDisplay:10.37,2013-01-09 04:28:00,
2013-01-08 23:33:00,76.3,71.8,30.21,ESE,112,12.7,12.7,86,0.03,CLR,,0.03,WeatherDisplay:10.37,2013-01-09 04:33:00,
2013-01-08 23:38:00,76.3,71.4,30.21,SE,135,5.8,5.8,85,0.03,CLR,,0.03,WeatherDisplay:10.37,2013-01-09 04:38:00,
2013-01-08 23:43:00,76.5,71.6,30.21,SE,135,6.9,6.9,85,0.03,CLR,,0.03,WeatherDisplay:10.37,2013-01-09 04:43:00,
2013-01-08 23:48:00,76.3,71.4,30.21,SE,135,10.5,10.5,85,0.03,CLR,,0.03,WeatherDisplay:10.37,2013-01-09 04:48:00,
2013-01-08 23:53:00,76.5,71.6,30.21,SSE,158,11.5,11.5,85,0.02,CLR,,0.03,WeatherDisplay:10.37,2013-01-09 04:53:00,
2013-01-08 23:59:00,76.3,71.4,30.21,ESE,112,9.2,9.2,85,0.00,CLR,,0.03,WeatherDisplay:10.37,2013-01-09 04:59:00,